Tracking 28799 objects as of 18-Apr-2024
HD Live streaming from Space Station
objects crossing your sky now

CZ-4B DEB

Track CZ-4B DEB now!
10-day predictions


NORAD ID: 29536
Int'l Code: 2006-015C
Perigee: 586.5 km
Apogee: 779.8 km
Inclination: 97.8 °
Period: 98.3 minutes
Semi major axis: 7054 km
RCS: 0.0177 m2 (small)
Launch date: April 26, 2006
Source: People's Republic of China (PRC)
Launch site: Taiyaun Space Center, China (TSC)

Note: This is SATELLITE DEBRIS
Your satellite tracking list
Your tracking list is empty




NASA's NSSDC Master Catalog

Two Line Element Set (TLE):
1 29536U 06015C   24108.13054865  .00032866  00000-0  52876-2 0  9999
2 29536  97.7922  75.7486 0137003  16.7645 343.8021 14.65323194946988
Source of the keplerian elements: AFSPC